Location: Berg
(48.0860°N, 10.6381°E)
Time: 04:45:47
(UTC+00:00)

Daily predictions for brighter satellites

Satellite Brightness Start Highest point End
(mag) Time Altitude Azimuth Time Altitude Azimuth Time Altitude Azimuth
Resurs 1-4 Rocket 4.1 00:01:10 10° NE 00:04:48 18° E 00:04:50 18° E
Cosmos 1464 Rocket 4.2 00:00:56 10° NNW 00:06:35 66° NW 00:06:35 66° NW
Cosmos 909 Rocket 4.4 00:06:56 77° SSW 00:07:39 89° SE 00:16:52 10° NE
Cosmos 2360 Rocket 3.0 00:09:55 43° ENE 00:09:55 43° ENE 00:14:12 10° NE
Lacrosse 4 Rocket 3.5 00:15:02 24° N 00:15:02 24° N 00:16:52 10° NNE
Cosmos 2263 Rocket 4.4 00:09:31 10° WNW 00:10:39 14° WNW 00:10:39 14° WNW
NOSS 3-4 (A) 4.4 00:16:26 33° E 00:16:26 33° E 00:20:34 10° NE
NOSS 3-4 (C) 4.4 00:16:29 32° E 00:16:29 32° E 00:20:37 10° NE
Cosmos 2322 Rocket 2.5 00:19:32 60° NE 00:19:32 60° NE 00:24:11 10° NNE
Cosmos 2034 Rocket 4.0 00:19:44 10° NNW 00:25:21 69° NW 00:25:21 69° NW
IDEFIX/ARIANE 42P 3.8 00:21:23 10° NNE 00:25:44 32° E 00:25:44 32° E
Cosmos 2219 Rocket 3.3 00:27:21 35° E 00:27:21 35° E 00:31:50 10° NE
NOSS 3-2 (C) 4.0 00:19:23 10° NW 00:26:40 65° WSW 00:26:40 65° WSW
SL-16 R/B 2.6 00:35:17 57° NW 00:35:17 57° NW 00:40:31 10° NNE
Cosmos 1844 4.4 00:29:44 10° NNW 00:33:46 44° NW 00:33:46 44° NW
USA 267 3.4 00:42:48 55° W 00:42:48 55° W 00:48:03 10° WNW
GEOS 3 Rocket 4.4 00:49:53 41° NW 00:49:53 41° NW 00:53:20 10° NW
Meteor 1-26 Rocket 4.3 00:48:58 72° E 00:48:58 72° E 00:54:40 10° NNE
Cosmos 1634 Rocket 3.8 00:45:20 10° N 00:51:42 90° W 00:52:05 80° S
ADEOS II 3.5 00:47:48 10° NE 00:52:21 29° E 00:53:12 27° ESE
Timation 2 Rocket 4.2 00:47:11 10° NW 00:52:59 58° W 00:52:59 58° W
SL-16 R/B 3.7 00:51:35 15° SE 00:56:16 40° ENE 01:02:01 10° N
Cosmos 1980 Rocket 4.4 00:57:35 12° WNW 01:00:09 15° NW 01:03:27 10° N
Cosmos 1844 Rocket 4.1 00:55:24 10° NW 00:58:03 25° WNW 00:58:03 25° WNW
CZ-2D R/B 2.6 00:58:40 10° NNE 01:03:54 52° E 01:04:20 51° ESE
Meteor 1-5 Rocket 4.4 00:59:01 10° NNW 01:04:15 62° WNW 01:04:15 62° WNW
Cosmos 1842 Rocket 4.3 01:13:46 46° E 01:13:46 46° E 01:17:52 10° NNE
Cosmos 1900 4.5 01:08:50 10° NNW 01:13:57 73° NE 01:14:28 66° E
Cosmos 1943 Rocket 4.3 01:13:49 10° N 01:18:32 26° NE 01:23:15 10° ESE
COSMOS 2428 3.2 01:22:41 43° SE 01:23:44 49° ESE 01:29:12 10° NE
USA 238 DEB 4.1 01:19:01 10° NW 01:26:01 48° WSW 01:26:01 48° WSW
USA 238 4.1 01:19:07 10° NW 01:26:11 49° WSW 01:26:14 49° WSW
IRIDIUM 104 4.2 01:21:19 10° N 01:26:34 82° E 01:27:10 70° SSE
Meteor 1-11 Rocket 4.4 01:24:50 10° N 01:30:17 50° ENE 01:34:01 19° SE
Cosmos 2237 Rocket 4.0 01:29:23 17° SE 01:32:05 24° ESE 01:36:30 10° NE
CZ-2C R/B 2.5 01:31:22 63° S 01:32:18 85° WSW 01:37:44 10° NNW
Cosmos 489 Rocket 4.4 01:27:23 10° NNW 01:33:35 60° WSW 01:34:06 58° SW
IRIDIUM 114 4.2 01:30:29 10° N 01:35:44 84° W 01:36:18 71° SSW
BREEZE-M DEB (TANK) 4.2 01:37:59 16° E 01:37:59 16° E 01:38:28 10° ENE
Cosmos 1867 3.7 01:31:33 10° NW 01:37:04 77° NE 01:42:32 10° SE
CZ-2C R/B 3.3 01:33:01 10° NNE 01:38:04 63° ESE 01:39:23 47° SSE
NPP 3.6 01:33:31 10° N 01:38:53 67° WNW 01:39:31 61° WSW
Cosmos 2221 3.4 01:40:19 38° NW 01:40:19 38° NW 01:43:33 10° N
Cosmos 2322 3.7 01:38:31 58° S 01:39:39 78° ESE 01:45:23 10° NNE
AQUA 4.2 01:35:18 10° NNE 01:40:00 59° E 01:40:52 50° SE
Cosmos 2279 Rocket 4.0 01:35:54 10° NNW 01:42:01 58° W 01:42:58 52° SW
IRIDIUM 103 4.2 01:39:39 10° N 01:44:52 70° W 01:45:25 64° SW
Resurs 1-4 Rocket 2.0 01:39:49 10° N 01:45:07 70° WNW 01:45:54 60° WSW
Lacrosse 5 2.1 01:44:47 51° WNW 01:45:45 61° NNW 01:50:51 10° NE
COSMOS 2441 4.3 01:42:17 10° NNE 01:47:13 89° W 01:47:56 66° SSW
Cosmos 2333 Rocket 2.9 01:46:53 36° W 01:48:01 40° NW 01:53:21 10° NNE
Nadezhda 4 Rocket 4.0 01:45:46 37° S 01:48:17 74° E 01:54:24 10° NNE
ALOS 3.1 01:44:33 10° NNE 01:49:02 45° E 01:50:36 33° SSE
USA 215 3.9 01:42:53 10° NE 01:49:08 50° NNW 01:53:22 21° W
Cosmos 44 Rocket 3.4 01:48:57 60° WSW 01:49:45 72° NW 01:54:56 10° NE
Lacrosse 4 Rocket 4.0 01:51:37 10° NW 01:52:15 10° NNW 01:52:53 10° NNW
Cosmos 972 Rocket 4.2 01:51:40 53° WSW 01:52:35 61° WNW 01:57:41 10° NNE
Cosmos 2360 Rocket 3.2 01:51:39 29° WNW 01:52:59 33° NW 01:58:04 10° NNE
Molniya-1 4.2 01:52:55 54° SW 01:54:07 86° SE 02:05:27 10° NE
NOSS 0 Rocket 4.5 01:52:16 31° SSE 01:54:57 51° ESE 02:00:53 10° NE
BlueWalker 3 2.4 01:58:05 39° NW 01:59:14 58° NNE 02:03:01 10° E
Sich 1 3.4 01:55:04 10° N 01:59:15 58° ENE 02:01:15 29° SSE
Meteor 2-17 Rocket 4.5 01:58:13 32° S 02:01:13 78° E 02:07:21 10° NNE
SAR-Lupe-1 4.0 01:57:43 10° NNE 02:01:17 81° ENE 02:01:17 81° ENE
Cosmos 2278 Rocket 2.3 01:56:37 10° NNW 02:02:20 75° ENE 02:07:59 10° SSE
Cosmos 2344 4.1 01:54:33 10° NW 02:02:56 89° SW 02:14:35 10° SE
Cosmos 2322 Rocket 3.7 02:01:19 20° WNW 02:03:12 24° NW 02:07:43 10° N
IDEFIX/ARIANE 42P 3.2 02:00:48 10° N 02:05:36 40° WNW 02:06:30 37° W
NOSS 3-4 (A) 3.8 02:03:50 35° W 02:05:52 50° NW 02:11:53 10° NE
NOSS 3-4 (C) 3.8 02:03:53 35° W 02:05:54 50° NW 02:11:56 10° NE
Cosmos 1743 Rocket 3.7 02:02:53 10° N 02:07:13 69° E 02:09:29 27° SSE
Cosmos 1538 Rocket 4.0 02:07:18 43° SSW 02:09:08 87° ESE 02:14:30 10° NNE
Cosmos 2219 Rocket 2.8 02:09:03 34° W 02:10:39 42° NW 02:15:59 10° NNE
Cosmos 1536 2.6 02:07:13 10° NNW 02:11:03 68° W 02:11:03 68° W
Okean 3 Rocket 4.3 02:07:12 10° NNW 02:10:57 36° WNW 02:10:57 36° WNW
MSX 4.3 02:06:56 10° N 02:12:24 45° WNW 02:14:09 35° WSW
SAR-Lupe-4 3.5 02:08:53 10° N 02:12:23 68° WNW 02:12:23 68° WNW
Cosmos 192 4.3 02:08:05 10° NNW 02:13:01 84° ENE 02:17:55 10° SSE
Gbstr 26 Del rocket 2.7 02:13:49 62° SW 02:14:28 84° SSE 02:18:19 10° ENE
EO 1 Delta rocket 4.3 02:12:26 10° NNE 02:17:05 57° E 02:20:08 21° S
Meteor 2-10 4.3 02:11:28 10° N 02:17:06 80° ENE 02:22:49 10° SSE
COBE Rocket 4.4 02:14:01 10° N 02:18:22 38° WNW 02:19:05 36° W
Meteor 1-28 Rocket 4.2 02:20:06 31° WNW 02:20:06 31° WNW 02:22:34 10° NNW
GP-B 3.0 02:14:46 10° N 02:19:12 76° W 02:20:37 42° SSW
SL-16 R/B 4.4 02:17:07 10° WNW 02:20:17 15° NW 02:23:31 10° N
NOSS 2-2 (E) 3.9 02:20:59 10° NW 02:25:26 74° SW 02:31:48 10° SSE
Cosmos 1726 3.2 02:25:47 10° NNW 02:27:30 25° NW 02:27:30 25° NW
BREEZE-M DEB (TANK) 3.5 02:27:07 29° WNW 02:28:54 78° N 02:38:47 10° E
Okean 1 3.1 02:29:45 50° SW 02:30:31 64° W 02:34:19 10° N
Cosmos 1092 Rocket 4.0 02:26:21 18° S 02:31:07 82° E 02:37:17 10° N
CZ-2C R/B 3.5 02:26:54 10° NNE 02:31:50 44° E 02:36:45 10° S
ADEOS II 2.5 02:27:09 10° N 02:32:08 45° WNW 02:34:05 31° WSW
Meteor 1-19 Rocket 4.3 02:30:32 22° SSW 02:34:29 88° W 02:40:33 10° NNE
FENGYUN 3A 4.0 02:29:33 10° N 02:34:48 50° WNW 02:37:10 30° SW
Cosmos 2026 Rocket 4.0 02:33:58 17° S 02:39:00 88° W 02:45:25 10° N
Cosmos 1461 2.6 02:35:37 10° NW 02:39:25 59° WSW 02:43:10 10° SSE
NOSS 2-2 (D) 3.8 02:35:26 10° NW 02:39:49 76° SW 02:46:02 10° SSE
SL-16 R/B 2.9 02:36:39 24° SSW 02:39:50 41° W 02:45:42 10° NNW
Kosmos-1783 4.4 02:42:15 22° NE 02:42:15 22° NE 02:43:07 10° NE
ATLAS 5 CENTAUR R/B 3.5 02:38:50 10° NNW 02:43:15 38° NE 02:48:36 10° ESE
Cosmos 1151 Rocket 2.9 02:40:49 25° S 02:43:18 86° W 02:47:39 10° N
RESURS DK-1 2.4 02:41:52 36° WSW 02:43:19 62° WNW 02:47:21 10° NNE
CZ-2D R/B 3.3 02:39:13 10° N 02:43:37 27° WNW 02:45:39 21° W
Cosmos 923 Rocket 4.0 02:42:04 21° SSW 02:45:38 80° ESE 02:50:56 10° NNE
Envisat 3.1 02:44:24 10° NNE 02:49:31 78° ESE 02:54:10 12° S
Cosmos 921 Rocket 4.2 02:50:16 10° S 02:54:14 41° ESE 02:58:18 10° NNE
Cosmos 1975 2.7 02:55:58 10° N 02:59:51 88° E 03:03:42 10° S
Meteor 1-27 Rocket 4.0 02:56:58 20° SW 03:00:54 52° WNW 03:06:29 10° N
Cosmos 1371 Rocket 4.0 02:56:46 10° NNW 03:02:02 87° ENE 03:07:19 10° SSE
Cosmos 1943 Rocket 2.1 02:57:09 10° NNW 03:02:47 68° WSW 03:08:24 10° SSE
Cosmos 1340 2.4 03:00:07 10° N 03:03:34 80° ENE 03:07:00 10° SSE
ATLAS 2AS CENTAUR R/B 3.6 02:58:11 10° SSW 03:05:17 50° ESE 03:12:09 10° NE
Thor Agena Rocket 3.6 03:00:45 10° NNE 03:05:49 79° ESE 03:10:52 10° SSW
Meteor 2-4 Rocket 3.7 03:01:07 10° S 03:06:30 81° E 03:12:03 10° NNE
COSMOS 2428 3.7 03:04:40 18° WSW 03:08:10 34° NW 03:13:20 10° NNE
NOAA 11 4.2 03:03:30 10° NNE 03:08:59 87° WNW 03:14:26 10° SSW
H-2A R/B 3.8 03:04:57 10° NNE 03:09:22 31° E 03:13:50 10° SSE
CZ-4 R/B 3.9 03:04:59 10° N 03:09:41 58° WNW 03:13:28 15° SW
Cosmos 1626 2.7 03:07:28 10° S 03:10:38 48° E 03:13:51 10° NNE
CZ-2C R/B 4.4 03:12:51 13° W 03:13:19 13° W 03:15:55 10° WNW
Cosmos 1666 Rocket 3.5 03:09:25 10° NNW 03:13:52 67° W 03:18:15 10° S
Cosmos 2237 Rocket 2.3 03:11:13 16° SW 03:15:40 62° WNW 03:21:20 10° NNE
Cosmos 1980 3.9 03:12:33 17° SW 03:16:55 58° WNW 03:22:32 10° NNE
CZ-2C R/B 4.5 03:13:44 10° NNW 03:17:31 22° WNW 03:20:25 14° W
Intercosmos 25 Rocket 3.4 03:17:39 10° NNW 03:20:57 54° W 03:25:25 10° S
Cosmos 2369 Rocket 3.5 03:15:35 10° NNW 03:20:57 43° NE 03:26:16 10° SE
S3M 4.4 03:16:10 10° N 03:22:20 69° E 03:28:30 10° SSE
Resurs 1-4 Rocket 4.1 03:21:36 10° NNW 03:23:58 13° NW 03:26:21 10° W
Cosmos 2112 Rocket 4.0 03:19:52 10° SSW 03:25:12 77° WNW 03:30:35 10° NNE
ALOS 3.5 03:22:17 10° N 03:26:00 24° WNW 03:28:56 14° WSW
DMSP B5D2-2 4.0 03:23:25 10° S 03:28:34 65° WSW 03:33:45 10° NNW
Lacrosse 5 3.3 03:24:57 10° WNW 03:29:31 31° N 03:34:05 10° NE
USA 215 4.3 03:25:24 10° ENE 03:31:26 41° N 03:37:28 10° WNW
CRYOSAT 2 4.5 03:28:34 10° N 03:33:29 84° E 03:38:21 10° S
Cosmos 2333 Rocket 4.4 03:32:03 10° NW 03:33:59 12° NNW 03:35:55 10° N
Cosmos 2266 Rocket 4.2 03:28:17 10° S 03:34:20 73° E 03:40:22 10° NNE
YAOGAN 6 2.8 03:33:30 10° N 03:36:36 41° WNW 03:39:42 10° SW
BlueWalker 3 2.5 03:33:51 10° WNW 03:37:23 36° SW 03:40:54 10° SSE
IRS-1D 3.6 03:32:31 10° N 03:37:31 61° WNW 03:42:35 10° SSW
Cosmos 1842 4.3 03:37:05 10° SSE 03:40:39 46° E 03:44:17 10° NNE
USA 290 2.0 03:42:09 10° NNW 03:45:15 82° WSW 03:48:19 10° SSE
Cosmos 2278 Rocket 3.5 03:41:51 10° NW 03:45:45 19° W 03:49:37 10° SW
Cosmos 1328 Rocket 4.0 03:41:41 10° SSW 03:45:55 45° WNW 03:50:13 10° N
Cosmos 1340 Rocket 3.6 03:43:23 10° SW 03:46:48 30° WNW 03:50:17 10° N
Cosmos 2315 Rocket 4.3 03:42:13 10° N 03:48:26 73° E 03:54:37 10° SSE
NOSS 3-1 (C) 4.1 03:41:24 10° NW 03:48:42 79° SW 03:57:35 10° SSE
Cosmos 1633 Rocket 3.8 03:48:07 10° NNW 03:52:00 32° W 03:55:53 10° SSW
Cosmos 1680 Rocket 4.1 03:47:32 10° SW 03:52:33 42° WNW 03:57:36 10° NNE
Cosmos 1553 Rocket 4.4 03:49:03 10° NNW 03:54:53 40° W 04:00:35 10° SSW
Cosmos 2219 Rocket 4.3 03:54:10 10° NW 03:56:12 12° NNW 03:58:14 10° N
ARIANE 5 R/B 4.1 03:52:40 10° NNE 03:57:35 39° E 04:02:28 10° SSE
Cosmos 1470 2.8 03:56:37 10° N 04:00:27 81° E 04:04:14 10° SSE
Gbstr 26 Del rocket 3.4 03:57:18 10° W 04:01:11 48° N 04:04:48 10° ENE
